New York JFK, NY

11:56 PM EDT on April 24, 2017 (GMT -0400)
Kennedy International

Weather History for KJFK - March, 2014

Change the Weather History Date:

Sunday, March 23, 2014

  Actual Average Record
Temperature  
Mean Temperature 37 °F 44 °F  
Max Temperature 46 °F 51 °F 77 °F (2012)
Min Temperature 28 °F 36 °F 20 °F (1959)
Degree Days  
Heating Degree Days 28 21  
Month to date heating degree days 637 564  
Since 1 July heating degree days 4344 4075  
Cooling Degree Days 0 0  
Month to date cooling degree days 0 0  
Year to date cooling degree days 0 0  
Moisture  
Dew Point 15 °F    
Average Humidity 36    
Maximum Humidity 50    
Minimum Humidity 22    
Precipitation  
Precipitation 0.00 in 0.13 in 1.13 in (1961)
Month to date precipitation 0.92 2.73  
Year to date precipitation 8.52 8.48  
Snow  
Snow 0.00 in 0.10 in 0.90 in (2011)
Month to date snowfall 0.6 3.0  
Since 1 July snowfall 45.5 22.5  
Snow Depth 0.00 in    
Sea Level Pressure  
Sea Level Pressure 30.04 in    
Wind  
Wind Speed 16 mph (NNW)    
Max Wind Speed 24 mph    
Max Gust Speed 30 mph    
Visibility 10 miles    
Events      
T = Trace of Precipitation, MM = Missing Value Source: NWS Daily Summary

Daily Weather History Graph

Daily Weather History Graph

Search for Another Location

Airport or City:

Trip Planner

Search our weather history database for the weather conditions in past years. The results will help you decide how hot, cold, wet, or windy it might be!

Date:

Astronomy

Mar. 23, 2014 Rise Set
Actual Time 6:53 AM EDT 7:10 PM EDT
Civil Twilight 6:26 AM EDT 7:37 PM EDT
Nautical Twilight 5:54 AM EDT 8:09 PM EDT
Astronomical Twilight 5:21 AM EDT 8:42 PM EDT
Moon 1:26 AM EDT (3/23) 11:30 AM EDT (3/23)
Length of Visible Light 13h 11m
Length of Day
12h 16m
Waning Gibbous, 55% of the Moon is Illuminated
Mar 23
Waning Gibbous
Mar 23
Last Quarter
Mar 30
New
Apr 7
First Quarter
Apr 15
Full

Hourly Weather History & Observations

Time (EDT) Temp. Windchill Dew Point Humidity Pressure Visibility Wind Dir Wind Speed Gust Speed Precip Events Conditions
12:51 AM 43.0 °F 37.2 °F 24.1 °F 47% 30.01 in 10.0 mi North 10.4 mph - N/A   Clear
1:51 AM 42.1 °F 36.1 °F 23.0 °F 47% 30.01 in 10.0 mi NNW 10.4 mph - N/A   Scattered Clouds
2:51 AM 41.0 °F 33.9 °F 23.0 °F 49% 30.01 in 10.0 mi NNW 12.7 mph - N/A   Scattered Clouds
3:51 AM 39.9 °F 32.5 °F 23.0 °F 51% 30.02 in 10.0 mi NNW 12.7 mph - N/A   Mostly Cloudy
4:51 AM 39.9 °F 31.4 °F 21.0 °F 47% 30.02 in 10.0 mi NW 16.1 mph - N/A   Mostly Cloudy
5:51 AM 39.9 °F 32.1 °F 19.9 °F 45% 30.03 in 10.0 mi NW 13.8 mph 24.2 mph N/A   Overcast
6:51 AM 39.0 °F 31.4 °F 19.0 °F 45% 30.05 in 10.0 mi NNW 12.7 mph - N/A   Mostly Cloudy
7:51 AM 39.9 °F 32.5 °F 19.0 °F 43% 30.06 in 10.0 mi NW 12.7 mph - N/A   Mostly Cloudy
8:51 AM 41.0 °F 34.3 °F 19.0 °F 41% 30.08 in 10.0 mi North 11.5 mph - N/A   Mostly Cloudy
9:51 AM 42.1 °F 35.7 °F 19.0 °F 40% 30.08 in 10.0 mi NNW 11.5 mph - N/A   Overcast
10:51 AM 43.0 °F 36.0 °F 19.9 °F 40% 30.07 in 10.0 mi NW 13.8 mph 19.6 mph N/A   Overcast
11:51 AM 43.0 °F 36.4 °F 19.9 °F 40% 30.06 in 10.0 mi NNW 12.7 mph - N/A   Overcast
12:51 PM 44.1 °F 37.4 °F 19.9 °F 38% 30.04 in 10.0 mi NW 13.8 mph 20.7 mph N/A   Overcast
1:51 PM 45.0 °F 38.2 °F 19.0 °F 36% 30.02 in 10.0 mi WNW 15.0 mph - N/A   Overcast
2:51 PM 43.0 °F 35.4 °F 12.0 °F 28% 30.00 in 10.0 mi NW 16.1 mph - N/A   Overcast
3:51 PM 43.0 °F 35.1 °F 7.0 °F 23% 29.99 in 10.0 mi NW 17.3 mph - N/A   Overcast
4:51 PM 41.0 °F 32.2 °F 6.1 °F 24% 29.99 in 10.0 mi NW 18.4 mph 27.6 mph N/A   Overcast
5:51 PM 39.9 °F 31.4 °F 7.0 °F 26% 30.00 in 10.0 mi NW 16.1 mph 25.3 mph N/A   Overcast
6:51 PM 37.9 °F 28.9 °F 8.1 °F 29% 30.01 in 10.0 mi NNW 16.1 mph 25.3 mph N/A   Mostly Cloudy
7:51 PM 37.0 °F 27.4 °F 6.1 °F 28% 30.04 in 10.0 mi NNW 17.3 mph - N/A   Mostly Cloudy
8:51 PM 35.1 °F 23.3 °F 6.1 °F 30% 30.06 in 10.0 mi NNW 23.0 mph - N/A   Mostly Cloudy
9:51 PM 33.1 °F 20.9 °F 5.0 °F 31% 30.08 in 10.0 mi NW 21.9 mph 28.8 mph N/A   Partly Cloudy
10:51 PM 30.9 °F 20.7 °F 6.1 °F 35% 30.11 in 10.0 mi NNW 13.8 mph 23.0 mph N/A   Partly Cloudy
11:51 PM 30.0 °F 17.5 °F 1.9 °F 30% 30.12 in 10.0 mi North 19.6 mph 23.0 mph N/A   Partly Cloudy